Regional Weather Roundup
Issued by NWS

Home | Current Version | Previous Version | Graphics & Text | Print | Product List | Glossary On
Versions: 1 2 3 4 5 6 7 8 9 10 11 12 13 14 15 16 17 18 19 20 21 22 23 24 25 26 27 28 29 30 31 32 33 34 35 36 37 38 39 40 41 42 43 44 45 46 47 48 49 50
565
ASUS43 KFSD 270210
RWRSD

WEATHER ROUNDUP FOR SOUTH DAKOTA
NATIONAL WEATHER SERVICE SIOUX FALLS SD
900 PM CDT MON SEP 26 2016

NOTE: "FAIR" INDICATES FEW OR NO CLOUDS BELOW 12,000 FEET WITH NO
SIGNIFICANT WEATHER AND/OR OBSTRUCTIONS TO VISIBILITY.


SDZ001>005-009-010-012>017-270300-
NORTHWEST AND NORTH CENTRAL SOUTH DAKOTA

CITY           SKY/WX    TMP DP  RH WIND       PRES   REMARKS
BUFFALO          N/A     59  42  53 W6        30.11F
FAITH            N/A     56  42  59 NW12      30.16S
MOBRIDGE       CLEAR     55  38  52 NW5       30.08S
$$

SDZ012>016-024>037-041>051-057-063-072>074-270300-
SOUTHWEST AND SOUTH CENTRAL SOUTH DAKOTA

CITY           SKY/WX    TMP DP  RH WIND       PRES   REMARKS
RAPID CTY ARPT CLEAR     56  40  55 N13       30.20R
PIERRE         CLEAR     57  37  47 N8        30.10R
CUSTER         CLOUDY    52  38  58 W7        30.30R
ELLSWORTH AFB  CLEAR     63  40  43 N10       30.19S
PHILIP         CLEAR     58  40  51 NW10      30.15R
PINE RIDGE     CLEAR     55  40  56 CALM      30.22R
WINNER         FAIR      63  40  42 CALM      30.12R
$$

SDZ004>011-016>023-039-040-270300-
NORTHEAST SOUTH DAKOTA

CITY           SKY/WX    TMP DP  RH WIND       PRES   REMARKS
ABERDEEN       CLEAR     58  34  40 NW10      30.05R
WATERTOWN      CLEAR     58  35  42 NW10      30.03R
BROOKINGS      CLEAR     51  35  54 W5        30.03R
SISSETON         N/A     56  34  43 NW10      29.98R
$$

SDZ017-020-022-023-036>040-048>070-270300-
SOUTHEAST SOUTH DAKOTA

CITY           SKY/WX    TMP DP  RH WIND       PRES   REMARKS
SIOUX FALLS    CLEAR     56  38  50 W8        30.04S
HURON          CLEAR     51  33  50 W7        30.06R
CHAMBERLAIN    CLEAR     59  42  52 NW7       30.10R
MITCHELL       CLEAR     57  38  48 W5        30.07R
YANKTON        CLEAR     55  43  62 NW9       30.06S
$$

ABBREVIATIONS USED IN REMARKS
   TC - TEMPERATURE IN CELSIUS
  WCI - WIND CHILL INDEX
   HX - HEAT INDEX
  VSB - VISIBILITY





USA.gov is the U.S. government's official web portal to all federal, state and local government web resources and services.